Tracking 29892 objects as of 21-Nov-2024
HD Live streaming from Space Station
objects crossing your sky now

STARLINK-11272

Track STARLINK-11272 now!
10-day predictions
STARLINK-11272 is classified as:


NORAD ID: 60723
Int'l Code: 2024-152D
Perigee: 365.6 km
Apogee: 368.1 km
Inclination: 53.2 °
Period: 91.7 minutes
Semi major axis: 6737 km
RCS: Unknown
Launch date: August 28, 2024
Source: United States (US)
Launch site: AIR FORCE EASTERN TEST RANGE (AFETR)
Your satellite tracking list
Your tracking list is empty




NASA's NSSDC Master Catalog

Two Line Element Set (TLE):
1 60723U 24152D   24325.35188766  .00000627  00000-0  10042-4 0  9998
2 60723  53.1581 294.6673 0001803  55.2769 304.8418 15.69711694 14334
Source of the keplerian elements: AFSPC